Location: Newark
(41.8083°N, 72.2500°W)
Time: 10:31:26
(UTC+00:00)

Vanguard 1 Rocket - Pass Details

Date: 13 December 2021
Orbit: 651 x 4224 km, 34.3° (Epoch: 15 January)

Event Time Altitude Azimuth Distance (km) Brightness Sun altitude
Exits shadow 07:29:04 46° 130° (SE) 2,820 9.8 -50.9°
Drops below altitude 10° 07:41:33 10° 106° (ESE) 6,136 12.0 -48.6°
Sets 07:47:31 0° 104° (ESE) 7,649 12.7 -47.5°
